dimanche 08 juillet 2018

le classement original se trouve sur : http://challenge-verviers.lavenir.net  
CHALLENGE L'AVENIR - TRAIL
LE TRAIL DES CROIX DE BANNEUX
DISTANCE 26.49 km
dimanche 08 juillet 2018
 
Place dos NOM Catégorie Pl/cat temps temps/km Vitesse
1 596 DORTU PATRICK S 1 02:03:19 04:39 12.89
2 594 SCHAUS NICOLAS S 2 02:06:26 04:46 12.57
3 580 MINY OLIVIER S 3 02:08:02 04:50 12.42
4 566 DEBRABANDERE LANDER V1 1 02:11:21 04:57 12.10
5 565 TELLER RENAUD S 4 02:12:55 05:01 11.96
6 591 GOMEZ XAVIER V1 2 02:14:41 05:05 11.80
7 562 LODEWIJCKX LUC V2 1 02:14:41 05:05 11.80
8 574 SCHOLZEN CHRISTOPHE S 5 02:17:04 05:10 11.60
9 564 BODEUX JEAN MICHEL S 6 02:19:13 05:15 11.42
10 572 BERMOND ALAIN V1 3 02:21:28 05:20 11.24
11 557 HERPERS JEAN V1 4 02:25:11 05:29 10.95
12 556 JEWASINSKI MICHEL V1 5 02:26:38 05:32 10.84
13 558 MICHAT JACKY V2 2 02:33:26 05:47 10.36
14 587 GARCIA FABRICE V1 6 02:35:15 05:52 10.24
15 603 NIZET REMY V1 7 02:37:06 05:56 10.12
16 589 RAUW OLIVIER V2 3 02:38:31 05:59 10.03
17 577 LAOUREUX LAURENT V1 8 02:39:05 06:00 9.99
18 588 PIRONT BENOIT S 7 02:39:59 06:02 9.94
19 582 KERIS MONIQUE A2 1 02:40:40 06:04 9.89
20 601 LAHAYE ADRIEN S 8 02:40:40 06:04 9.89
21 555 ROOMANS CHRISTIAN V2 4 02:41:56 06:07 9.82
22 573 JACQUEMIN OLIVIER V1 9 02:42:35 06:08 9.78
23 560 REGNIER DIDIER V2 5 02:43:02 06:09 9.75
24 575 NYSSEN PIERRE V1 10 02:43:48 06:11 9.70
25 595 BLOEMEN VALENTINE D 1 02:43:49 06:11 9.70
26 579 LOUVIAUX CINDY A1 1 02:44:00 06:11 9.69
27 585 DAMS KRISTOF V1 11 02:44:11 06:12 9.68
28 584 SCHWEYEN MAEVA D 2 02:45:19 06:14 9.62
29 593 BISSOT MICHEL V1 12 02:47:05 06:18 9.51
30 559 MATHIEU THIERRY V2 6 03:05:36 07:00 8.56
31 561 HOUNTJE FREDDY V3 1 03:13:02 07:17 8.23
32 571 HUMBLET GUILLAUME S 9 03:17:52 07:28 8.03
33 569 CRASBORN JULIEN S 10 03:17:52 07:28 8.03
34 590 POLIS LUCIENNE A2 2 03:19:57 07:33 7.95
35 597 DELWAIDE ANNE A3 1 03:19:57 07:33 7.95
36 583 HERNANDEZ MANUEL V2 7 03:19:58 07:33 7.95
37 567 JUNGBLUTH RAYMOND V3 2 03:21:59 07:37 7.87
38 563 SIMONIS SUZANNE A3 2 03:37:37 08:13 7.30
39 581 LEBEAU CHARLOTTE A2 3 03:38:15 08:14 7.28
40 599 MARECHAL BERNADETTE A3 3 03:38:34 08:15 7.27